Back to catalog

H-2A R/B

AliveHEO
NORAD 32501·ROCKET BODY·🇯🇵 Japan

Launched Feb 23, 2008 from Tanegashima Space Center

Loading…

Next Passes (next 24 hours)

TLE

FreshSource: Space-Track

Epoch: Sep 14, 2026, 05:11 UTC

1 32501U 08007B   26257.21613199  .00004051  00000-0  16032-2 0  9994
2 32501  28.1992 240.2945 6737319 327.1148   4.8164  2.97220609178446

Track H-2A R/B in real time with AllMySat

Download on the App Store